Location: Vesunti
(61.5000°N, 22.8333°E)
Time: 21:39:42
(UTC+00:00)

ADEOS Rocket - Pass Details

Date: 17 February 2020
Orbit: 859 x 1306 km, 98.7° (Epoch: 29 March)

Event Time Altitude Azimuth Distance (km) Brightness Sun altitude
Rises 02:52:15 0° 134° (SE) 3,746 6.4 -23.7°
Reaches altitude 10° 02:54:41 10° 130° (SE) 2,857 5.8 -23.4°
Maximum altitude 03:00:58 53° 56° (NE) 1,369 4.1 -22.7°
Drops below altitude 10° 03:07:56 10° 343° (NNW) 3,170 5.6 -21.9°
Sets 03:10:45 0° 339° (NNW) 4,190 6.2 -21.6°
